Weather History for Ottumwa, IA

Change the Weather History Date:

Friday, March 21, 2014

  Actual Average Record
Temperature  
Mean Temperature 45 °F 41 °F  
Max Temperature 61 °F 52 °F 88 °F (1907)
Min Temperature 29 °F 30 °F 4 °F (1951)
Degree Days  
Heating Degree Days 20 24  
Month to date heating degree days 700 593  
Since 1 July heating degree days 6212 5478  
Cooling Degree Days 0 0  
Month to date cooling degree days 0 0  
Year to date cooling degree days 0 0  
Moisture  
Dew Point 31 °F    
Average Humidity 64    
Maximum Humidity 92    
Minimum Humidity 35    
Precipitation  
Precipitation 0.00 in 0.07 in 1.22 in (1932)
Month to date precipitation 0.07 1.46  
Year to date precipitation 1.40 3.64  
Sea Level Pressure  
Sea Level Pressure 29.88 in    
Wind  
Wind Speed 16 mph (NNW)    
Max Wind Speed 31 mph    
Max Gust Speed 38 mph    
Visibility 10 miles    
Events      
T = Trace of Precipitation, MM = Missing Value Source: NWS Daily Summary

Daily Weather History Graph

Daily Weather History Graph

Search for Another Location

Airport:

Trip Planner

Search our weather history database for the weather conditions in past years. The results will help you decide how hot, cold, wet, or windy it might be!

Date:

Astronomy

Mar. 21, 2014 Rise Set
Actual Time 7:11 AM CDT 7:23 PM CDT
Civil Twilight 6:43 AM CDT 7:50 PM CDT
Nautical Twilight 6:11 AM CDT 8:22 PM CDT
Astronomical Twilight 5:39 AM CDT 8:55 PM CDT
Moon No Moon Rise 10:01 AM CDT (3/21)
Length of Visible Light 13h 06m
Length of Day
12h 11m
Waning Gibbous, 75% of the Moon is Illuminated
Mar 21
Waning Gibbous
Mar 23
Last Quarter
Mar 30
New
Apr 7
First Quarter
Apr 15
Full

Hourly Weather History & Observations

Time (CDT) Temp. Windchill Dew Point Humidity Pressure Visibility Wind Dir Wind Speed Gust Speed Precip Events Conditions
12:53 AM 36.0 °F 29.0 °F 28.0 °F 73% 29.93 in 10.0 mi ENE 9.2 mph - N/A   Clear
1:53 AM 36.0 °F 27.5 °F 28.9 °F 76% 29.90 in 10.0 mi East 12.7 mph - N/A   Clear
2:53 AM 34.0 °F 26.6 °F 28.9 °F 82% 29.89 in 10.0 mi ESE 9.2 mph - N/A   Clear
3:53 AM 34.0 °F 26.6 °F 28.9 °F 82% 29.87 in 10.0 mi SE 9.2 mph - N/A   Clear
4:53 AM 30.9 °F 23.5 °F 28.0 °F 89% 29.87 in 10.0 mi SE 8.1 mph - N/A   Clear
5:53 AM 32.0 °F 25.6 °F 28.0 °F 85% 29.85 in 10.0 mi ESE 6.9 mph - N/A   Clear
6:53 AM 30.0 °F 23.2 °F 27.0 °F 88% 29.85 in 7.0 mi ESE 6.9 mph - N/A   Clear
7:53 AM 34.0 °F 26.6 °F 30.0 °F 85% 29.83 in 7.0 mi SE 9.2 mph - N/A   Clear
8:53 AM 39.0 °F 32.3 °F 32.0 °F 76% 29.82 in 9.0 mi SE 10.4 mph - N/A   Clear
9:53 AM 44.1 °F 37.4 °F 33.1 °F 65% 29.81 in 10.0 mi South 13.8 mph - N/A   Clear
10:53 AM 52.0 °F - 34.0 °F 50% 29.80 in 10.0 mi SSW 12.7 mph - N/A   Clear
11:53 AM 57.9 °F - 34.0 °F 41% 29.78 in 10.0 mi WSW 16.1 mph 21.9 mph N/A   Clear
12:53 PM 60.1 °F - 34.0 °F 38% 29.77 in 10.0 mi West 13.8 mph - N/A   Clear
1:53 PM 54.0 °F - 32.0 °F 43% 29.80 in 10.0 mi WNW 16.1 mph - N/A   Clear
2:53 PM 57.9 °F - 34.0 °F 41% 29.78 in 10.0 mi NNW 21.9 mph 32.2 mph N/A   Clear
3:53 PM 59.0 °F - 32.0 °F 36% 29.81 in 10.0 mi NNW 23.0 mph 27.6 mph N/A   Clear
4:53 PM 60.1 °F - 32.0 °F 35% 29.83 in 10.0 mi WNW 20.7 mph 32.2 mph N/A   Mostly Cloudy
5:53 PM 57.9 °F - 32.0 °F 37% 29.85 in 10.0 mi NW 25.3 mph 29.9 mph N/A   Overcast
6:53 PM 53.1 °F - 32.0 °F 45% 29.90 in 10.0 mi NW 25.3 mph 34.5 mph N/A   Clear
7:53 PM 45.0 °F 36.0 °F 34.0 °F 65% 29.96 in 10.0 mi NNW 25.3 mph - N/A   Partly Cloudy
8:53 PM 39.0 °F 29.9 °F 30.0 °F 70% 30.01 in 10.0 mi NW 17.3 mph 27.6 mph N/A   Clear
9:53 PM 37.9 °F 27.9 °F 30.0 °F 73% 30.05 in 10.0 mi NNW 19.6 mph - N/A   Mostly Cloudy
10:53 PM 34.0 °F 20.1 °F 26.1 °F 73% 30.09 in 10.0 mi NNW 31.1 mph 36.8 mph N/A   Overcast
11:53 PM 34.0 °F 21.8 °F 25.0 °F 70% 30.12 in 10.0 mi NNW 23.0 mph 29.9 mph N/A   Overcast